Deer Park, WA
on Saturday, January 19, 2013

Saturday
Previous Day Next Day
Daily Summary
 ActualAverageRecord
Temperature
Mean Temperature °F 28°F  
Max Temperature 28°F 34°F 45°F (2005)
Min Temperature 2°F 22°F -2°F (2000)
Degree Days
Heating Degree Days 50 37  
Month to date heating degree days 836 731  
Since 1 July heating degree days 3629 3958  
Cooling Degree Days 0 0  
Month to date cooling degree days 0 0  
Year to date cooling degree days 0 0  
Moisture
Dew Point 13°F   
Average Humidity 90    
Maximum Humidity 100    
Minimum Humidity 80    
Precipitation
Precipitation 0.00 in 0.08 in 0.27 in (2012)
Month to date precipitation 1.11 1.82  
Year to date precipitation 1.11 1.82  
Wind
Wind Speed 0 mph   
Max Wind Speed 5 mph   
Max Gust Speed 6 mph   
Visibility 9 miles   
Events     

Key: T is trace of precipitation, MM is missing value
Source: NWS Daily Summary
Time(PST)TemperatureDew PointHumidity Pressure Visibility Wind DirectionWind SpeedGust SpeedPrecipitationEvents Conditions
12:53 AM 7.0°F 3.9°F 87% 30.44 in 10.0 miles Calm Calm - N/A   Clear
1:53 AM 7.0°F 3.9°F 87% 30.45 in 10.0 miles Calm Calm - N/A   Clear
2:53 AM 5.0°F 1.9°F 87% 30.46 in 8.0 miles Calm Calm - N/A   Clear
3:53 AM 3.9°F 1.0°F 88% 30.47 in 10.0 miles Calm Calm - N/A   Clear
4:53 AM 3.9°F 1.0°F 88% 30.49 in 9.0 miles Calm Calm - N/A   Clear
5:53 AM 8.1°F 3.9°F 83% 30.48 in 10.0 miles Calm Calm - N/A   Clear
6:53 AM 9.0°F 5.0°F 84% 30.49 in 10.0 miles Calm Calm - N/A   Clear
7:53 AM 9.0°F 6.1°F 88% 30.51 in 10.0 miles Calm Calm - N/A   Clear
8:53 AM 10.9°F 9.0°F 92% 30.53 in 10.0 miles Calm Calm - N/A   Clear
9:53 AM 17.1°F 16.0°F 96% 30.53 in 9.0 miles SW 3.5 mph - N/A   Clear
10:53 AM 21.0°F 19.0°F 92% 30.52 in 9.0 miles Calm Calm - N/A   Clear
11:53 AM 23.0°F 19.9°F 88% 30.50 in 10.0 miles Calm Calm - N/A   Clear
12:53 PM 25.0°F 21.9°F 88% 30.47 in 10.0 miles Calm Calm - N/A   Clear
1:53 PM 27.0°F 24.1°F 89% 30.46 in 10.0 miles Calm Calm - N/A   Clear
2:53 PM 27.0°F 23.0°F 85% 30.47 in 10.0 miles Calm Calm - N/A   Clear
3:53 PM 24.1°F 19.0°F 81% 30.48 in 10.0 miles Calm Calm - N/A   Clear
4:53 PM 24.1°F 19.9°F 84% 30.48 in 10.0 miles Calm Calm - N/A   Clear
5:53 PM 21.0°F 19.9°F 96% 30.48 in 8.0 miles Calm Calm - N/A   Clear
6:53 PM 18.0°F 17.1°F 96% 30.49 in 6.0 miles Calm Calm - N/A   Clear
7:53 PM 19.9°F 18.0°F 92% 30.50 in 8.0 miles Calm Calm - N/A   Clear
8:53 PM 16.0°F 15.1°F 96% 30.52 in 9.0 miles Calm Calm - N/A   Clear
9:53 PM 18.0°F 18.0°F 100% 30.51 in 8.0 miles Calm Calm - N/A   Clear
10:53 PM 16.0°F 12.9°F 88% 30.51 in 6.0 miles Calm Calm - N/A   Clear
11:53 PM 15.1°F 14.0°F 95% 30.52 in 3.0 miles Calm Calm - N/A   Clear
Moon Phase
Jan. 19 Jan. 26 Feb. 03 Feb. 10 Feb. 17
Sunrise:07:31 AM (PST) Moon Rise:11:04 AM (PST)1/19
Sunset:04:30 PM (PST) Moon Set:01:03 AM (PST)1/19

Copyright © 2014 The Weather Underground, Inc.